Location: Dompnac
(44.5644°N, 4.1026°E)
Time: 19:00:48
(UTC+00:00)

Cosmos 1634 Rocket - Pass Details

Date: 25 January 2021
Orbit: 961 x 991 km, 82.9° (Epoch: 05 March)

Event Time Altitude Azimuth Distance (km) Brightness Sun altitude
Rises 05:52:07 0° 195° (SSW) 3,630 7.0 -13.8°
Reaches altitude 10° 05:54:37 10° 198° (SSW) 2,687 6.3 -13.4°
Maximum altitude 06:00:44 66° 280° (W) 1,046 3.9 -12.3°
Drops below altitude 10° 06:06:54 10° 3° (N) 2,714 6.2 -11.2°
Sets 06:09:27 0° 6° (N) 3,668 6.9 -10.8°
